Surface/Precipitation History
12/02/2016 08:40  to  12/3/2016 08:40
Change End Date:
Date/Time
(MST)
Sf
Temp Chem Water Layer Surface Precipitation
Sfc Pvt Sub Frz Factor Pct Dpth DpthThk IcePct Cond Salin FI Type Intens Accum Rate
12/03/2016 08:26 Ice Watch 24.4F - 33F - 95 - - - - 4 mhos 809 - None None - -
12/03/2016 08:25 Ice Watch 24.3F - 33F - 95 - - - - 4 mhos 818 - None None - -
12/03/2016 08:15 Ice Watch 24.3F - 33F - 95 - - - - 5 mhos 842 - None None - -
12/03/2016 08:11 Ice Watch 24.1F - 33F - 95 - - - - 5 mhos 865 - None None - -
12/03/2016 08:05 Ice Watch 23.9F - 33F - 95 - - - - 5 mhos 875 - None None - -
12/03/2016 07:56 Ice Watch 23.5F - 33F - 95 - - - - 5 mhos 904 - None None - -
12/03/2016 07:55 Ice Watch 23.5F - 33F - 95 - - - - 5 mhos 907 - None None - -
12/03/2016 07:45 Ice Watch 24.3F - 33F - 95 - - - - 5 mhos 908 - None None - -
12/03/2016 07:41 Ice Watch 24.6F - 33F - 95 - - - - 5 mhos 886 - None None - -
12/03/2016 07:35 Ice Watch 24.8F - 33F - 95 - - - - 5 mhos 880 - None None - -
12/03/2016 07:26 Ice Watch 25.2F - 33F - 95 - - - - 5 mhos 856 - None None - -
12/03/2016 07:25 Ice Watch 25.3F - 33F - 95 - - - - 5 mhos 846 - None None - -
12/03/2016 07:15 Ice Watch 25.3F - 33F - 95 - - - - 5 mhos 839 - None None - -
12/03/2016 07:11 Ice Watch 25.5F - 33F - 95 - - - - 5 mhos 829 - None None - -
12/03/2016 07:05 Ice Watch 25.3F - 33F - 95 - - - - 5 mhos 825 - None None - -
Date/Time
(MST)
Sf
Temp Chem Water Layer Surface Precipitation
Sfc Pvt Sub Frz Factor Pct Dpth DpthThk IcePct Cond Salin FI Type Intens Accum Rate
12/03/2016 06:56 Ice Watch 25.2F - 33F - 95 - - - - 5 mhos 816 - None None - -
12/03/2016 06:55 Ice Watch 25.2F - 33F - 95 - - - - 5 mhos 817 - None None - -
12/03/2016 06:45 Ice Watch 25.2F - 33F - 95 - - - - 5 mhos 809 - None None - -
12/03/2016 06:41 Ice Watch 25.0F - 33F - 95 - - - - 5 mhos 796 - None None - -
12/03/2016 06:35 Ice Watch 25.2F - 33F - 95 - - - - 4 mhos 770 - None None - -
12/03/2016 06:26 Ice Watch 25.2F - 33F - 95 - - - - 4 mhos 778 - None None - -
12/03/2016 06:25 Ice Watch 25.2F - 33F - 95 - - - - 4 mhos 779 - None None - -
12/03/2016 06:15 Ice Watch 25.2F - 33F - 95 - - - - 4 mhos 760 - None None - -
12/03/2016 06:11 Ice Watch 25.0F - 33F - 95 - - - - 4 mhos 760 - None None - -
12/03/2016 06:05 Ice Watch 24.8F - 33F - 95 - - - - 4 mhos 749 - None None - -
12/03/2016 05:56 Ice Watch 24.8F - 33F - 95 - - - - 4 mhos 738 - None None - -
12/03/2016 05:55 Ice Watch 24.8F - 33F - 95 - - - - 4 mhos 737 - None None - -
12/03/2016 05:45 Ice Watch 25.0F - 33F - 95 - - - - 4 mhos 718 - None None - -
12/03/2016 05:41 Ice Watch 24.8F - 33F - 95 - - - - 4 mhos 709 - None None - -
12/03/2016 05:35 Ice Watch 24.8F - 33F - 95 - - - - 4 mhos 713 - None None - -
Date/Time
(MST)
Sf
Temp Chem Water Layer Surface Precipitation
Sfc Pvt Sub Frz Factor Pct Dpth DpthThk IcePct Cond Salin FI Type Intens Accum Rate
12/03/2016 05:26 Ice Watch 24.8F - 33F - 95 - - - - 4 mhos 679 - None None - -
12/03/2016 05:25 Ice Watch 24.8F - 33F - 95 - - - - 4 mhos 678 - None None - -
12/03/2016 05:15 Ice Watch 24.8F - 33F - 95 - - - - 4 mhos 676 - None None - -
12/03/2016 05:11 Ice Watch 25.0F - 33F - 95 - - - - 4 mhos 661 - None None - -
12/03/2016 05:05 Ice Watch 24.6F - 33F - 95 - - - - 4 mhos 684 - None None - -
12/03/2016 04:56 Ice Watch 24.8F - 33F - 95 - - - - 4 mhos 672 - None None - -
12/03/2016 04:55 Ice Watch 25.0F - 33F - 95 - - - - 4 mhos 660 - None None - -
12/03/2016 04:45 Ice Watch 24.8F - 33F - 95 - - - - 4 mhos 640 - None None - -
12/03/2016 04:41 Ice Watch 24.6F - 33F - 95 - - - - 4 mhos 653 - None None - -
12/03/2016 04:35 Ice Watch 24.4F - 33F - 95 - - - - 3 mhos 647 - None None - -
12/03/2016 04:26 Ice Watch 24.6F - 33F - 95 - - - - 4 mhos 645 - None None - -
12/03/2016 04:25 Ice Watch 24.6F - 33F - 95 - - - - 3 mhos 641 - None None - -
12/03/2016 04:15 Ice Watch 24.6F - 33F - 95 - - - - 4 mhos 648 - None None - -
12/03/2016 04:11 Ice Watch 24.6F - 33F - 95 - - - - 3 mhos 635 - None None - -
12/03/2016 04:05 Ice Watch 24.6F - 33F - 95 - - - - 4 mhos 655 - None None - -
Date/Time
(MST)
Sf
Temp Chem Water Layer Surface Precipitation
Sfc Pvt Sub Frz Factor Pct Dpth DpthThk IcePct Cond Salin FI Type Intens Accum Rate
12/03/2016 03:56 Ice Watch 24.6F - 33F - 95 - - - - 3 mhos 638 - None None - -
12/03/2016 03:54 Ice Watch 24.6F - 33F - 95 - - - - 3 mhos 639 - None None - -
12/03/2016 03:44 Ice Watch 24.6F - 33F - 95 - - - - 3 mhos 633 - None None - -
12/03/2016 03:41 Ice Watch 24.6F - 33F - 95 - - - - 4 mhos 646 - None None - -
12/03/2016 03:34 Ice Watch 24.6F - 33F - 95 - - - - 3 mhos 634 - None None - -
12/03/2016 03:26 Ice Watch 24.6F - 33F - 95 - - - - 3 mhos 640 - None None - -
12/03/2016 03:24 Ice Watch 24.6F - 33F - 95 - - - - 4 mhos 643 - None None - -
12/03/2016 03:14 Ice Watch 24.4F - 33F - 95 - - - - 3 mhos 633 - None None - -
12/03/2016 03:11 Ice Watch 24.4F - 33F - 95 - - - - 3 mhos 649 - None None - -
12/03/2016 03:04 Ice Watch 24.4F - 33F - 95 - - - - 3 mhos 641 - None None - -
12/03/2016 02:56 Ice Watch 24.4F - 33F - 95 - - - - 3 mhos 641 - None None - -
12/03/2016 02:54 Ice Watch 24.4F - 33F - 95 - - - - 3 mhos 639 - None None - -
12/03/2016 02:44 Ice Watch 24.3F - 33F - 95 - - - - 3 mhos 644 - None None - -
12/03/2016 02:41 Ice Watch 24.3F - 33F - 95 - - - - 3 mhos 642 - None None - -
12/03/2016 02:34 Ice Watch 24.4F - 33F - 95 - - - - 3 mhos 635 - None None - -
Date/Time
(MST)
Sf
Temp Chem Water Layer Surface Precipitation
Sfc Pvt Sub Frz Factor Pct Dpth DpthThk IcePct Cond Salin FI Type Intens Accum Rate
12/03/2016 02:26 Ice Watch 24.4F - 33F - 95 - - - - 3 mhos 604 - None None - -
12/03/2016 02:24 Ice Watch 24.4F - 33F - 95 - - - - 3 mhos 612 - None None - -
12/03/2016 02:14 Ice Watch 24.4F - 33F - 95 - - - - 3 mhos 630 - None None - -
12/03/2016 02:11 Ice Watch 24.6F - 33F - 95 - - - - 3 mhos 620 - None None - -
12/03/2016 02:04 Ice Watch 24.1F - 33F - 95 - - - - 3 mhos 617 - None None - -
12/03/2016 01:56 Ice Watch 23.9F - 33F - 95 - - - - 3 mhos 625 - None None - -
12/03/2016 01:54 Ice Watch 23.9F - 33F - 95 - - - - 3 mhos 625 - None None - -
12/03/2016 01:44 Ice Watch 23.9F - 33F - 95 - - - - 3 mhos 624 - None None - -
12/03/2016 01:41 Ice Watch 24.1F - 33F - 95 - - - - 3 mhos 607 - None None - -
12/03/2016 01:34 Ice Watch 23.9F - 33F - 95 - - - - 3 mhos 616 - None None - -
12/03/2016 01:26 Ice Watch 23.9F - 33F - 95 - - - - 3 mhos 658 - None None - -
12/03/2016 01:24 Ice Watch 24.1F - 33F - 95 - - - - 3 mhos 646 - None None - -
12/03/2016 01:14 Ice Watch 23.9F - 33F - 95 - - - - 3 mhos 664 - None None - -
12/03/2016 01:11 Ice Watch 23.9F - 33F - 95 - - - - 3 mhos 655 - None None - -
12/03/2016 01:04 Ice Watch 24.1F - 33F - 95 - - - - 3 mhos 634 - None None - -
Date/Time
(MST)
Sf
Temp Chem Water Layer Surface Precipitation
Sfc Pvt Sub Frz Factor Pct Dpth DpthThk IcePct Cond Salin FI Type Intens Accum Rate
12/03/2016 00:56 Ice Watch 24.1F - 33F - 95 - - - - 3 mhos 618 - None None - -
12/03/2016 00:54 Ice Watch 24.1F - 33F - 95 - - - - 3 mhos 626 - None None - -
12/03/2016 00:44 Ice Watch 24.1F - 33F - 95 - - - - 3 mhos 628 - None None - -
12/03/2016 00:41 Ice Watch 24.3F - 33F - 95 - - - - 3 mhos 620 - None None - -
12/03/2016 00:34 Ice Watch 24.3F - 33F - 95 - - - - 3 mhos 643 - None None - -
12/03/2016 00:26 Ice Watch 24.1F - 33F - 95 - - - - 3 mhos 658 - None None - -
12/03/2016 00:24 Ice Watch 24.1F - 33F - 95 - - - - 3 mhos 662 - None None - -
12/03/2016 00:13 Ice Watch 24.3F - 33F - 95 - - - - 4 mhos 672 - None None - -
12/03/2016 00:11 Ice Watch 24.3F - 33F - 95 - - - - 4 mhos 682 - None None - -
12/03/2016 00:03 Ice Watch 23.7F - 33F - 95 - - - - 4 mhos 716 - None None - -
12/02/2016 23:56 Ice Watch 23.9F - 33F - 95 - - - - 4 mhos 689 - None None - -
12/02/2016 23:53 Ice Watch 24.1F - 33F - 95 - - - - 4 mhos 677 - None None - -
12/02/2016 23:43 Ice Watch 23.9F - 33F - 95 - - - - 3 mhos 613 - None None - -
12/02/2016 23:41 Ice Watch 23.9F - 33F - 95 - - - - 3 mhos 597 - None None - -
12/02/2016 23:33 Ice Watch 23.7F - 33F - 95 - - - - 3 mhos 514 - None None - -
Date/Time
(MST)
Sf
Temp Chem Water Layer Surface Precipitation
Sfc Pvt Sub Frz Factor Pct Dpth DpthThk IcePct Cond Salin FI Type Intens Accum Rate
12/02/2016 23:26 Ice Watch 23.5F - 33F - 95 - - - - 2 mhos 451 - None None - -
12/02/2016 23:23 Ice Watch 23.5F - 33F - 95 - - - - 2 mhos 422 - None None - -
12/02/2016 23:13 Ice Watch 23.7F - 33F - 95 - - - - 2 mhos 317 - None None - -
12/02/2016 23:11 Ice Watch 23.7F - 33F - 95 - - - - 2 mhos 304 - None None - -
12/02/2016 23:03 Ice Watch 23.5F - 33F - 95 - - - - 1 mhos 261 - None None - -
12/02/2016 22:56 Ice Watch 23.5F - 33F - 95 - - - - 1 mhos 224 - None None - -
12/02/2016 22:53 Ice Watch 23.5F - 33F - 95 - - - - 1 mhos 219 - None None - -
12/02/2016 22:43 Ice Watch 23.9F - 33F - 95 - - - - 1 mhos 169 - None None - -
12/02/2016 22:41 Ice Watch 23.9F - 33F - 95 - - - - 1 mhos 169 - None None - -
12/02/2016 22:33 Ice Watch 24.3F - 33F - 40 - - - - 1 mhos 146 - None None - -
12/02/2016 22:26 Ice Watch 24.1F - 33F - 5 - - - - 1 mhos 141 - None None - -
12/02/2016 22:23 Ice Watch 24.4F - 33F - 5 - - - - 1 mhos 140 - None None - -
12/02/2016 22:13 Ice Watch 23.5F - 33F - 10 - - - - 1 mhos 150 - None None - -
12/02/2016 22:11 Ice Watch 23.5F - 33F - 10 - - - - 1 mhos 150 - None None - -
12/02/2016 22:03 Ice Watch 23.5F - 33F - 5 - - - - 1 mhos 143 - None None - -
Date/Time
(MST)
Sf
Temp Chem Water Layer Surface Precipitation
Sfc Pvt Sub Frz Factor Pct Dpth DpthThk IcePct Cond Salin FI Type Intens Accum Rate
12/02/2016 21:56 Ice Watch 23.5F - 33F - 5 - - - - 1 mhos 144 - None None - -
12/02/2016 21:53 Ice Watch 23.4F - 33F - 5 - - - - 1 mhos 147 - None None - -
12/02/2016 21:43 Ice Watch 22.8F - 33F - 5 - - - - 1 mhos 154 - None None - -
12/02/2016 21:41 Ice Watch 22.6F - 33F - 5 - - - - 1 mhos 160 - None None - -
12/02/2016 21:33 Ice Watch 22.5F - 33F - 5 - - - - 1 mhos 162 - None None - -
12/02/2016 21:26 Ice Watch 22.1F - 33F - 5 - - - - 1 mhos 172 - None None - -
12/02/2016 21:23 Ice Watch 22.3F - 33F - 5 - - - - 1 mhos 171 - None None - -
12/02/2016 21:13 Ice Watch 21.9F - 33F - 5 - - - - 1 mhos 175 - None None - -
12/02/2016 21:11 Ice Watch 21.9F - 33F - 5 - - - - 1 mhos 175 - None None - -
12/02/2016 21:03 Ice Watch 21.7F - 33F - 5 - - - - 1 mhos 181 - None None - -
12/02/2016 20:56 Ice Watch 21.7F - 33F - 5 - - - - 1 mhos 183 - None None - -
12/02/2016 20:53 Ice Watch 21.7F - 33F - 5 - - - - 1 mhos 185 - None None - -
12/02/2016 20:43 Ice Watch 21.9F - 33F - 10 - - - - 1 mhos 190 - None None - -
12/02/2016 20:41 Ice Watch 21.9F - 33F - 10 - - - - 1 mhos 191 - None None - -
12/02/2016 20:33 Ice Watch 21.6F - 33F - 10 - - - - 1 mhos 197 - None None - -
Date/Time
(MST)
Sf
Temp Chem Water Layer Surface Precipitation
Sfc Pvt Sub Frz Factor Pct Dpth DpthThk IcePct Cond Salin FI Type Intens Accum Rate
12/02/2016 20:26 Ice Watch 21.6F - 33F - 15 - - - - 1 mhos 199 - None None - -
12/02/2016 20:23 Ice Watch 21.7F - 33F - 15 - - - - 1 mhos 196 - None None - -
12/02/2016 20:13 Ice Watch 21.0F - 33F - 15 - - - - 1 mhos 211 - None None - -
12/02/2016 20:11 Ice Watch 21.2F - 33F - 15 - - - - 1 mhos 205 - None None - -
12/02/2016 20:02 Ice Watch 20.7F - 33F - 15 - - - - 1 mhos 214 - None None - -
12/02/2016 19:56 Ice Watch 20.7F - 33F - 15 - - - - 1 mhos 219 - None None - -
12/02/2016 19:52 Ice Watch 20.7F - 33F - 20 - - - - 1 mhos 218 - None None - -
12/02/2016 19:42 Ice Watch 20.8F - 33F - 15 - - - - 1 mhos 210 - None None - -
12/02/2016 19:41 Ice Watch 20.8F - 33F - 15 - - - - 1 mhos 211 - None None - -
12/02/2016 19:32 Ice Watch 21.0F - 33F - 20 - - - - 1 mhos 214 - None None - -
12/02/2016 19:26 Ice Watch 20.8F - 33F - 25 - - - - 1 mhos 215 - None None - -
12/02/2016 19:22 Ice Watch 20.8F - 33F - 40 - - - - 1 mhos 215 - None None - -
12/02/2016 19:12 Ice Watch 21.0F - 33F - 25 - - - - 1 mhos 216 - None None - -
12/02/2016 19:11 Ice Watch 21.0F - 33F - 25 - - - - 1 mhos 217 - None None - -
12/02/2016 19:02 Ice Watch 21.2F - 33F - 20 - - - - 1 mhos 210 - None None - -
Date/Time
(MST)
Sf
Temp Chem Water Layer Surface Precipitation
Sfc Pvt Sub Frz Factor Pct Dpth DpthThk IcePct Cond Salin FI Type Intens Accum Rate
12/02/2016 18:56 Ice Watch 21.0F - 34F - 30 - - - - 1 mhos 218 - None None - -
12/02/2016 18:52 Ice Watch 21.4F - 33F - 30 - - - - 1 mhos 211 - None None - -
12/02/2016 18:42 Ice Watch 21.4F - 33F - 25 - - - - 1 mhos 212 - None None - -
12/02/2016 18:41 Ice Watch 21.6F - 33F - 25 - - - - 1 mhos 208 - None None - -
12/02/2016 18:32 Ice Watch 21.4F - 33F - 30 - - - - 1 mhos 216 - None None - -
12/02/2016 18:26 Ice Watch 21.6F - 33F - 50 - - - - 1 mhos 214 - None None - -
12/02/2016 18:22 Ice Watch 21.6F - 33F - 30 - - - - 1 mhos 215 - None None - -
12/02/2016 18:12 Ice Watch 21.7F - 33F - 25 - - - - 1 mhos 210 - None None - -
12/02/2016 18:11 Ice Watch 21.9F - 33F - 30 - - - - 1 mhos 208 - None None - -
12/02/2016 18:02 Ice Watch 22.5F - 33F - 25 - - - - 1 mhos 204 - None None - -
12/02/2016 17:56 Ice Watch 22.5F - 33F - 15 - - - - 1 mhos 202 - None None - -
12/02/2016 17:52 Ice Watch 22.6F - 33F - 15 - - - - 1 mhos 202 - None None - -
12/02/2016 17:42 Ice Watch 23.4F - 33F - 20 - - - - 1 mhos 195 - None None - -
12/02/2016 17:41 Ice Watch 23.2F - 33F - 20 - - - - 1 mhos 198 - None None - -
12/02/2016 17:32 Ice Watch 23.5F - 33F - 25 - - - - 1 mhos 195 - None None - -
Date/Time
(MST)
Sf
Temp Chem Water Layer Surface Precipitation
Sfc Pvt Sub Frz Factor Pct Dpth DpthThk IcePct Cond Salin FI Type Intens Accum Rate
12/02/2016 17:26 Ice Watch 23.9F - 33F - 15 - - - - 1 mhos 202 - None None - -
12/02/2016 17:22 Ice Watch 23.9F - 33F - 15 - - - - 1 mhos 193 - None None - -
12/02/2016 17:12 Ice Watch 23.9F - 33F - 20 - - - - 1 mhos 197 - None None - -
12/02/2016 17:11 Ice Watch 23.9F - 33F - 15 - - - - 1 mhos 199 - None None - -
12/02/2016 17:02 Ice Watch 24.3F - 33F - 15 - - - - 1 mhos 194 - None None - -
12/02/2016 16:56 Ice Watch 24.6F - 33F - 15 - - - - 1 mhos 191 - None None - -
12/02/2016 16:52 Ice Watch 24.3F - 33F - 15 - - - - 1 mhos 196 - None None - -
12/02/2016 16:42 Ice Watch 25.0F - 33F - 15 - - - - 1 mhos 191 - None None - -
12/02/2016 16:41 Ice Watch 25.2F - 33F - 15 - - - - 1 mhos 190 - None None - -
12/02/2016 16:32 Ice Watch 25.9F - 33F - 10 - - - - 1 mhos 183 - None None - -
12/02/2016 16:26 Ice Watch 26.4F - 33F - 10 - - - - 1 mhos 178 - None None - -
12/02/2016 16:22 Ice Watch 26.8F - 33F - 10 - - - - 1 mhos 178 - None None - -
12/02/2016 16:12 Ice Watch 27.0F - 33F - 10 - - - - 1 mhos 177 - None None - -
12/02/2016 16:11 Ice Watch 27.1F - 33F - 10 - - - - 1 mhos 176 - None None - -
12/02/2016 16:02 Ice Watch 27.7F - 33F - 10 - - - - 1 mhos 179 - None None - -
Date/Time
(MST)
Sf
Temp Chem Water Layer Surface Precipitation
Sfc Pvt Sub Frz Factor Pct Dpth DpthThk IcePct Cond Salin FI Type Intens Accum Rate
12/02/2016 15:56 Ice Watch 28.0F - 33F - 10 - - - - 1 mhos 179 - None None - -
12/02/2016 15:52 Ice Watch 28.0F - 33F - 10 - - - - 1 mhos 183 - None None - -
12/02/2016 15:42 Ice Watch 28.6F - 33F - 10 - - - - 1 mhos 180 - None None - -
12/02/2016 15:41 Ice Watch 28.8F - 33F - 10 - - - - 1 mhos 182 - None None - -
12/02/2016 15:32 Ice Watch 29.5F - 33F - 10 - - - - 1 mhos 179 - None None - -
12/02/2016 15:26 Ice Watch 29.5F - 33F - 5 - - - - 1 mhos 184 - None None - -
12/02/2016 15:21 Ice Watch 30.0F - 33F - 5 - - - - 2 mhos 181 - None None - -
12/02/2016 15:11 Ice Watch 30.9F - 33F - 5 - - - - 2 mhos 179 - None None - -
12/02/2016 15:11 Ice Watch 30.9F - 33F - 5 - - - - 2 mhos 179 - None None - -
12/02/2016 15:01 Ice Watch 32.0F - 33F - 5 - - - - 2 mhos 166 - None None - -
12/02/2016 14:56 Trace Moisture 32.5F - 33F - 5 - - - - 2 mhos 183 - None None - -
12/02/2016 14:51 Trace Moisture 33.4F - 33F - 5 - - - - 2 mhos 175 - None None - -
12/02/2016 14:41 Trace Moisture 36.7F - 33F - 5 - - - - 2 mhos 154 - None None - -
12/02/2016 14:41 Trace Moisture 36.7F - 33F - 5 - - - - 2 mhos 154 - None None - -
12/02/2016 14:31 Trace Moisture 40.5F - 33F - 5 - - - - 2 mhos 192 - None None - -
Date/Time
(MST)
Sf
Temp Chem Water Layer Surface Precipitation
Sfc Pvt Sub Frz Factor Pct Dpth DpthThk IcePct Cond Salin FI Type Intens Accum Rate
12/02/2016 14:26 Trace Moisture 41.4F - 33F - 5 - - - - 3 mhos 239 - None None - -
12/02/2016 14:21 Trace Moisture 41.2F - 33F - 5 - - - - 3 mhos 250 - None None - -
12/02/2016 14:11 Trace Moisture 41.0F - 33F - 5 - - - - 3 mhos 260 - None None - -
12/02/2016 14:11 Trace Moisture 40.8F - 33F - 5 - - - - 3 mhos 293 - None None - -
12/02/2016 14:01 Trace Moisture 41.0F - 33F - 95 - - - - 4 mhos 372 - None None - -
12/02/2016 13:57 Trace Moisture 41.0F - 33F - 5 - - - - 4 mhos 377 - None None - -
12/02/2016 13:51 Trace Moisture 41.0F - 33F - 5 - - - - 4 mhos 345 - None None - -
12/02/2016 13:42 Trace Moisture 40.1F - 33F - 45 - - - - 5 mhos 436 - None None - -
12/02/2016 13:41 Trace Moisture 40.1F - 33F - 95 - - - - 4 mhos 405 - None None - -
12/02/2016 13:31 Trace Moisture 39.4F - 33F - 5 - - - - 5 mhos 419 - None None - -
12/02/2016 13:27 Trace Moisture 37.6F - 33F - 5 - - - - 5 mhos 441 - None None - -
12/02/2016 13:21 Trace Moisture 37.4F - 33F - 85 - - - - 5 mhos 491 - None None - -
12/02/2016 13:11 Trace Moisture 33.3F - 33F - 95 - - - - 6 mhos 565 - None None - -
12/02/2016 13:11 Trace Moisture 33.3F - 33F - 95 - - - - 6 mhos 565 - None None - -
12/02/2016 13:01 Trace Moisture 35.2F - 33F - 95 - - - - 6 mhos 603 - None None - -
Date/Time
(MST)
Sf
Temp Chem Water Layer Surface Precipitation
Sfc Pvt Sub Frz Factor Pct Dpth DpthThk IcePct Cond Salin FI Type Intens Accum Rate
12/02/2016 12:57 Trace Moisture 37.0F - 33F - 95 - - - - 6 mhos 587 - None None - -
12/02/2016 12:51 Trace Moisture 37.8F - 33F - 90 - - - - 6 mhos 525 - None None - -
12/02/2016 12:42 Trace Moisture 37.6F - 33F - 95 - - - - 4 mhos 350 - None None - -
12/02/2016 12:41 Trace Moisture 37.4F - 33F - 95 - - - - 4 mhos 355 - None None - -
12/02/2016 12:31 Trace Moisture 39.7F - 33F - 75 - - - - 2 mhos 142 - None None - -
12/02/2016 12:26 Trace Moisture 39.9F - 33F - 15 - - - - 2 mhos 148 - None None - -
12/02/2016 12:21 Trace Moisture 39.9F - 33F - 20 - - - - 2 mhos 184 - None None - -
12/02/2016 12:12 Trace Moisture 40.1F - 33F - 15 - - - - 2 mhos 179 - None None - -
12/02/2016 12:11 Trace Moisture 40.3F - 33F - 20 - - - - 2 mhos 170 - None None - -
12/02/2016 12:01 Trace Moisture 39.9F - 33F - 5 - - - - 2 mhos 213 - None None - -
12/02/2016 11:57 Trace Moisture 38.3F - 33F - 10 - - - - 2 mhos 214 - None None - -
12/02/2016 11:51 Trace Moisture 38.5F - 33F - 15 - - - - 3 mhos 262 - None None - -
12/02/2016 11:41 Trace Moisture 36.1F - 33F - 15 - - - - 3 mhos 276 - None None - -
12/02/2016 11:41 Trace Moisture 36.1F - 33F - 15 - - - - 3 mhos 241 - None None - -
12/02/2016 11:31 Trace Moisture 35.2F - 33F - 20 - - - - 4 mhos 338 - None None - -
Date/Time
(MST)
Sf
Temp Chem Water Layer Surface Precipitation
Sfc Pvt Sub Frz Factor Pct Dpth DpthThk IcePct Cond Salin FI Type Intens Accum Rate
12/02/2016 11:27 Trace Moisture 35.2F - 33F - 25 - - - - 4 mhos 342 - None None - -
12/02/2016 11:21 Trace Moisture 34.5F - 33F - 30 - - - - 4 mhos 350 - None None - -
12/02/2016 11:12 Trace Moisture 33.4F - 33F - 70 - - - - 4 mhos 361 - None None - -
12/02/2016 11:11 Trace Moisture 33.3F - 33F - 75 - - - - 4 mhos 365 - None None - -
12/02/2016 11:01 Trace Moisture 32.5F - 33F - 95 - - - - 4 mhos 379 - None None - -
12/02/2016 10:56 Trace Moisture 32.5F - 33F - 95 - - - - 4 mhos 384 - None None - -
12/02/2016 10:51 Ice Watch 32.0F - 33F - 95 - - - - 4 mhos 397 - None None - -
12/02/2016 10:42 Ice Watch 31.5F - 33F - 95 - - - - 4 mhos 410 - None None - -
12/02/2016 10:40 Ice Watch 31.5F - 33F - 95 - - - - 4 mhos 420 - None None - -
12/02/2016 10:30 Ice Watch 30.7F - 33F - 95 - - - - 4 mhos 448 - None None - -
12/02/2016 10:27 Ice Watch 30.6F - 33F - 95 - - - - 4 mhos 458 - None None - -
12/02/2016 10:20 Ice Watch 30.4F - 33F - 95 - - - - 4 mhos 472 - None None - -
12/02/2016 10:12 Ice Watch 30.0F - 33F - 95 - - - - 4 mhos 499 - None None - -
12/02/2016 10:10 Ice Watch 29.7F - 33F - 95 - - - - 4 mhos 515 - None None - -
12/02/2016 10:00 Ice Watch 29.1F - 33F - 95 - - - - 5 mhos 571 - None None - -
Date/Time
(MST)
Sf
Temp Chem Water Layer Surface Precipitation
Sfc Pvt Sub Frz Factor Pct Dpth DpthThk IcePct Cond Salin FI Type Intens Accum Rate
12/02/2016 09:56 Ice Watch 28.6F - 33F - 95 - - - - 4 mhos 587 - None None - -
12/02/2016 09:50 Ice Watch 28.0F - 33F - 95 - - - - 4 mhos 607 - None None - -
12/02/2016 09:42 Ice Watch 27.9F - 33F - 95 - - - - 5 mhos 635 - None None - -
12/02/2016 09:40 Ice Watch 27.9F - 33F - 95 - - - - 5 mhos 639 - None None - -
12/02/2016 09:30 Ice Watch 27.7F - 33F - 95 - - - - 5 mhos 645 - None None - -
12/02/2016 09:26 Ice Watch 27.7F - 33F - 95 - - - - 5 mhos 664 - None None - -
12/02/2016 09:20 Ice Watch 27.3F - 33F - 95 - - - - 5 mhos 687 - None None - -
12/02/2016 09:12 Ice Watch 26.8F - 33F - 95 - - - - 5 mhos 729 - None None - -
12/02/2016 09:10 Ice Watch 26.8F - 34F - 95 - - - - 5 mhos 729 - None None - -
12/02/2016 09:00 Ice Watch 27.0F - 34F - 95 - - - - 5 mhos 751 - None None - -
12/02/2016 08:56 Ice Watch 26.8F - 34F - 95 - - - - 5 mhos 757 - None None - -
12/02/2016 08:50 Ice Watch 26.6F - 34F - 95 - - - - 5 mhos 812 - None None - -
12/02/2016 08:41 Ice Watch 25.7F - 34F - 95 - - - - 6 mhos 943 - None None - -
12/02/2016 08:40 Ice Watch 25.7F - 34F - 95 - - - - 6 mhos 939 - None None - -
Change End Date:

Copyright © 1998-2015 Vaisala, Inc.
All Rights Reserved
Send comments about the data to:
SCAN Web ® is a registered trademark of Vaisala, Inc.
SCAN Web Version 6.0